This is the latest recevied weather packets stored in our database for station/object LX0WX-13. If no packets are shown the sender has not sent any weather packets the latest 10 day(s).
| Time | Temp. | Humidity | Pressure | Rain* | Wind** | Luminosity | Snow |
|---|---|---|---|---|---|---|---|
| 1777799459 | 19.44° C | 39% | 1009.9 hPa | 0 mm | - | - | - |
| 1777799159 | 19.44° C | 38% | 1009.7 hPa | 0 mm | - | - | - |
| 1777798859 | 20° C | 39% | 1009.9 hPa | 0 mm | - | - | - |
| 1777798559 | 20° C | 40% | 1009.9 hPa | 0 mm | - | - | - |
| 1777798259 | 19.44° C | 40% | 1009.9 hPa | 0 mm | - | - | - |
| 1777797959 | 18.89° C | 42% | 1009.9 hPa | 0 mm | - | - | - |
| 1777797659 | 18.33° C | 43% | 1009.9 hPa | 0 mm | - | - | - |
| 1777797359 | 17.22° C | 44% | 1009.9 hPa | 0 mm | - | - | - |
| 1777797059 | 17.22° C | 45% | 1009.9 hPa | 0 mm | - | - | - |
| 1777796759 | 16.67° C | 46% | 1009.9 hPa | 0 mm | - | - | - |
| 1777796459 | 15.56° C | 47% | 1009.9 hPa | 0 mm | - | - | - |
| 1777796159 | 15.56° C | 48% | 1009.9 hPa | 0 mm | - | - | - |
| 1777795859 | 15° C | 48% | 1010 hPa | 0 mm | - | - | - |
| 1777795559 | 15° C | 48% | 1010 hPa | 0 mm | - | - | - |
| 1777795259 | 15° C | 48% | 1009.9 hPa | 0 mm | - | - | - |
| 1777794959 | 15° C | 48% | 1009.9 hPa | 0 mm | - | - | - |
| 1777794659 | 15° C | 48% | 1009.9 hPa | 0 mm | - | - | - |
| 1777794359 | 15° C | 48% | 1009.8 hPa | 0 mm | - | - | - |
| 1777794060 | 15° C | 47% | 1009.8 hPa | 0 mm | - | - | - |
| 1777793759 | 15° C | 47% | 1009.8 hPa | 0 mm | - | - | - |
| 1777793460 | 15° C | 46% | 1009.8 hPa | 0 mm | - | - | - |
| 1777793159 | 15.56° C | 45% | 1009.8 hPa | 0 mm | - | - | - |
| 1777792860 | 15.56° C | 45% | 1009.8 hPa | 0 mm | - | - | - |
| 1777792560 | 16.11° C | 45% | 1009.7 hPa | 0 mm | - | - | - |
| 1777792260 | 16.11° C | 44% | 1010 hPa | 0 mm | - | - | - |
* Rain latest hour (hover to see other rain measurements)
** Current wind speed in m/s (hover to see current wind gust speed)